Skip Page Navigation
NASA JPL Caltech
NASA Logo - Jet Propulsion Laboratory + View the NASA Portal
+ Near-Earth Object (NEO) Program
Search JPL
JPL Home Earth Solar System Stars & Galaxies Technology
JPL Solar System Dynamics
BODIES ORBITS EPHEMERIDES TOOLS PHYSICAL DATA DISCOVERY FAQ SITE MAP
JPL Small-Body Database Browser
Search: [ help ]  
20073 Yumiko (1994 AN2)
Classification: Main-belt Asteroid          SPK-ID: 2020073
Ephemeris | Orbit Diagram | Orbital Elements | Physical Parameters | Discovery Circumstances | Close-Approach Data ]

[ show orbit diagram ]
Orbital Elements at Epoch 2457000.5 (2014-Dec-09.0) TDB
Reference: JPL 13 (heliocentric ecliptic J2000)
 Element Value Uncertainty (1-sigma)   Units 
e .06477488587952046 5.1909e-08  
a 2.300734335600638 1.1651e-08 AU
q 2.151704531573012 1.2249e-07 AU
i 6.590559766639663 5.0068e-06 deg
node 305.4544973577925 4.5653e-05 deg
peri 271.6120172811393 6.0232e-05 deg
M 266.4785829220356 4.0842e-05 deg
tp 2457331.636241953501
(2015-Nov-05.13624195)
0.00014494 JED
period 1274.671094898843
3.49
9.6826e-06
2.651e-08
d
yr
n .2824257970865569 2.1454e-09 deg/d
Q 2.449764139628264 1.2406e-08 AU
  Orbit Determination Parameters
   # obs. used (total)      944  
   data-arc span      7763 days (21.25 yr)  
   first obs. used      1993-11-21  
   last obs. used      2015-02-22  
   planetary ephem.      DE431  
   SB-pert. ephem.      SB431-BIG16  
   condition code      0  
   fit RMS      .54081  
   data source      ORB  
   producer      Otto Matic  
   solution date      2015-Mar-09 14:59:46  

Additional Information
 Earth MOID = 1.15773 AU 
 T_jup = 3.580 
[ show covariance matrix ]

Ephemeris | Orbit Diagram | Orbital Elements | Physical Parameters | Discovery Circumstances | Close-Approach Data ]

Physical Parameter Table
Parameter Symbol Value Units Sigma Reference Notes
absolute magnitude H 14.8 mag n/a MPO267783  

20073 Yumiko           Discovered 1994 Jan. 9 by T. Kobayashi and H. Fujii at Oizumi.
Yumiko Fujii (b. 1968) is the wife of the second discoverer.
NOTE: some special characters may not display properly (any characters within {} are an attempt to place the proper accent above a character)
Reference: 20050407/MPCPages.arcLast Updated: 2005-04-15

[ show close-approach data ]
Alternate Designations
 1994 AN2 = 1998 FN111 
Ephemeris | Orbit Diagram | Orbital Elements | Physical Parameters | Discovery Circumstances | Close-Approach Data ]
ABOUT SSD CREDITS/AWARDS PRIVACY/COPYRIGHT GLOSSARY LINKS
FirstGov 2015-Mar-31 11:20 UT
(server date/time)  
NASA Home Page
Site Manager:   Ryan S. Park
Webmaster  Alan B. Chamberlin